Dewpoint
23 23 24 24 24 23 23 24 24 24 24 24 24 25 26 29 29 28 30 30 29 28 27 27 27 27 28 32 34 35 35 36 36 36 36 36 37 37 37 37 37 37 37 37 37 37 37 37 37 37 37 38 38 39 40 41 41 40 40 39 39 39 39 39 40 40 41 41 42 43 43 44 45 45 46 46 46 45 45 46 46 45 45 45 44 44
23 23 24 24 23 23 23 23 24 24 24 24 24 25 27 27 26 27 27 28 28 28 27 27 27 27 26 29 32 34 35 35 35 36 36 36 36 37 37 37 37 37 37 37 37 36 36 37 37 37 37 38 38 39 40 40 40 40 39 38 38 38 38 38 39 39 40 41 43 44 45 45 46 46 46 46 45 45 44 44 44 44 44 44 44 44
23 23 23 24 23 23 23 23 23 23 24 24 25 26 26 26 26 27 26 27 28 27 27 27 27 27 27 28 31 34 34 35 35 35 36 36 36 37 37 37 37 37 36 36 36 36 36 37 37 37 37 38 38 39 39 40 39 39 38 38 38 38 38 38 38 39 40 41 43 44 45 45 45 46 45 45 44 44 43 43 43 44 44 44 44 44
23 23 23 24 24 23 23 23 23 24 25 25 26 26 25 26 26 26 26 26 26 27 27 27 27 27 27 27 29 32 33 34 35 35 36 36 37 37 37 37 37 36 36 36 36 36 36 37 37 37 37 38 38 38 39 39 39 38 38 38 38 38 38 38 38 39 39 41 42 43 44 44 45 45 45 44 44 43 43 43 43 44 43 43 43 44
24 24 24 24 24 24 24 24 24 25 27 27 27 27 26 26 26 26 26 27 27 27 27 27 27 27 26 26 28 31 33 34 35 35 36 36 37 37 37 36 36 36 36 36 36 36 36 37 37 37 37 37 38 38 39 38 38 38 38 38 38 38 38 38 38 39 39 40 41 42 43 43 44 44 44 44 44 44 43 43 44 44 43 43 43 43
25 25 25 25 25 25 25 25 26 27 27 27 27 27 27 26 26 26 26 27 27 27 27 27 26 26 25 26 28 31 33 34 35 35 36 36 37 37 36 36 35 35 35 36 36 36 37 37 37 37 37 37 38 38 38 38 38 38 38 38 38 38 38 38 38 39 39 40 41 42 43 43 43 43 44 44 44 44 44 44 44 44 43 43 43 43
26 26 26 26 26 26 26 26 27 27 27 27 27 27 27 27 27 27 27 27 27 27 27 26 26 25 25 26 29 31 32 33 34 35 36 37 36 36 35 35 35 35 36 36 36 36 36 37 37 37 37 37 37 37 37 37 37 37 38 38 38 38 38 38 38 39 39 40 41 41 42 43 43 43 43 43 43 43 43 44 44 44 44 43 43 43
27 27 27 27 27 27 27 27 27 28 27 27 27 27 27 27 27 27 27 27 26 26 26 25 25 25 25 26 28 29 30 31 32 33 34 34 34 34 34 35 35 35 36 36 36 36 36 36 37 37 37 37 37 37 37 37 37 37 38 38 38 38 38 38 38 39 39 40 41 41 42 42 42 43 43 43 43 43 43 43 43 43 43 43 43 43
28 27 27 27 27 27 27 27 28 28 28 28 27 27 27 27 27 27 27 27 26 25 25 25 25 25 26 26 27 28 30 32 32 32 31 30 30 31 33 34 35 35 35 36 36 36 36 36 36 36 36 36 36 37 37 37 37 37 38 38 38 38 38 38 38 38 39 40 40 41 42 42 42 42 42 42 42 43 43 43 43 43 43 43 43 43
28 28 28 28 28 28 28 28 28 28 28 28 27 27 27 27 27 27 27 26 26 25 25 25 26 26 26 27 28 29 31 32 32 32 32 31 31 32 33 33 33 34 35 35 35 36 36 36 36 36 36 36 36 36 37 37 37 37 37 37 37 37 37 38 38 38 38 39 40 41 41 41 41 41 41 42 42 42 42 43 43 43 43 43 43 43
28 28 28 28 28 28 28 28 28 28 27 27 27 27 27 27 27 26 26 25 25 26 26 26 26 26 26 27 28 28 28 28 28 30 31 32 32 33 32 32 32 33 34 35 35 35 35 35 35 35 35 36 36 36 37 37 37 37 37 37 37 37 37 37 38 38 38 38 39 40 41 41 41 41 41 41 42 42 42 42 42 43 43 43 43 43
28 28 29 29 29 28 28 28 28 28 27 27 27 27 27 27 26 26 25 25 25 26 26 26 26 27 27 27 27 27 27 26 26 26 27 28 29 30 30 30 31 32 33 33 34 33 33 34 34 34 35 35 36 36 36 36 37 37 37 37 37 37 37 37 37 37 37 38 39 40 41 41 41 41 41 41 41 42 42 42 42 42 42 43 43 43
29 29 29 29 29 29 28 28 28 28 28 27 27 27 27 27 26 26 26 26 26 26 26 27 27 27 27 27 27 26 26 26 26 26 26 26 26 26 27 27 28 29 29 28 28 29 32 33 33 34 35 35 36 36 36 36 37 37 37 37 37 37 37 37 37 37 37 38 39 40 40 41 41 41 41 41 41 41 41 41 41 41 42 42 42 42
30 30 30 29 29 29 28 28 28 28 28 28 27 27 27 28 28 28 27 27 28 28 28 28 27 26 26 26 26 26 26 26 25 25 25 25 26 26 27 27 27 26 25 25 26 27 31 32 32 32 34 35 35 36 36 37 37 37 37 37 37 36 36 36 36 37 37 38 39 40 40 40 41 41 41 41 41 40 40 40 41 41 41 42 42 42
30 30 30 30 29 29 29 29 28 28 28 28 28 28 29 29 30 30 29 29 29 29 28 27 26 26 25 25 26 26 26 25 25 25 25 26 27 28 27 26 26 25 26 26 27 28 30 31 31 31 32 33 34 35 36 36 36 37 37 36 36 35 35 35 36 36 37 38 39 39 39 40 40 40 40 39 39 39 39 40 40 41 41 42 42 42
32 32 32 31 31 31 31 31 31 31 31 31 32 32 32 32 32 32 31 30 29 29 28 27 26 25 25 25 26 26 25 25 25 25 25 26 26 27 26 26 27 27 27 28 28 28 29 30 31 31 32 33 35 36 36 36 36 36 36 35 35 35 35 35 36 36 37 38 38 39 39 39 39 38 38 38 38 38 38 39 39 40 41 41 41 42
34 33 33 33 33 33 33 34 34 34 34 34 34 34 33 32 32 31 30 29 29 28 28 27 26 25 24 24 25 26 26 26 26 26 26 26 27 28 28 28 28 28 28 28 28 29 29 30 31 31 32 34 35 35 35 35 35 35 35 35 35 35 35 35 36 36 37 37 38 38 37 37 37 37 37 37 37 37 37 37 38 39 39 40 41 41
34 34 34 33 33 34 34 35 35 35 35 34 33 33 33 33 32 30 29 30 29 28 27 27 26 25 24 24 24 25 27 26 26 27 28 28 28 28 29 28 28 28 28 29 29 30 30 31 31 32 32 34 35 34 34 34 34 34 34 35 35 35 35 35 36 36 37 37 37 37 37 36 36 36 36 36 36 36 36 37 37 37 38 39 39 40
34 34 34 33 34 34 34 34 33 33 33 33 32 32 32 31 31 31 30 29 28 28 27 27 27 26 25 24 24 25 26 27 28 30 29 29 29 29 29 29 29 29 29 29 30 31 31 31 32 33 34 34 34 34 33 34 34 34 35 35 35 35 35 36 36 36 37 37 36 36 35 35 35 35 35 35 35 36 36 36 36 37 37 38 39 39
35 35 35 34 34 34 34 34 34 34 34 34 33 32 32 30 29 28 28 28 28 28 28 27 27 26 26 25 26 27 28 30 31 32 31 30 30 30 29 29 29 29 29 30 30 31 31 30 30 30 32 32 33 33 33 34 34 34 35 35 35 35 35 36 36 36 36 36 36 35 35 35 34 35 35 35 35 35 36 36 36 37 37 38 38 39
36 36 36 36 35 35 34 34 35 35 35 34 33 32 31 29 28 28 28 27 27 27 27 27 27 27 27 28 28 29 30 31 32 31 31 30 30 29 29 29 29 29 30 30 31 30 29 28 26 26 29 31 32 33 34 34 34 35 35 35 35 35 36 36 36 36 36 35 35 34 34 34 34 34 35 35 35 35 36 36 37 37 38 39 39 39
34 34 33 33 33 33 34 33 34 35 35 34 33 32 31 29 28 28 27 27 26 26 27 27 28 29 31 32 32 32 32 32 32 32 31 30 29 29 28 29 29 29 30 29 28 27 25 24 24 25 29 32 33 33 34 34 34 35 35 35 35 35 35 36 35 35 34 34 34 34 34 34 34 34 34 34 35 35 36 37 38 39 40 40 40 41
34 33 33 32 32 33 34 33 33 34 35 34 33 32 30 29 28 28 27 27 27 27 28 29 31 33 33 33 32 32 32 32 32 32 32 30 28 28 28 30 30 30 28 26 24 23 23 23 24 26 29 32 33 34 34 34 34 34 34 34 34 34 34 34 34 33 33 33 33 33 33 33 34 34 34 35 36 37 37 39 40 41 41 41 41 41
34 34 34 34 34 34 34 34 33 33 33 32 32 31 30 29 29 29 28 28 29 30 31 32 32 32 32 32 32 32 32 32 32 32 32 30 29 29 29 29 28 27 25 24 23 23 24 25 26 27 29 32 33 33 33 33 33 33 33 33 33 33 33 32 32 32 32 33 33 33 34 34 34 35 35 36 37 38 39 40 41 41 41 41 41 41
37 36 36 36 36 37 36 36 35 35 33 32 31 30 30 31 31 31 31 31 32 32 32 31 30 30 29 31 31 31 31 32 32 32 32 31 30 29 28 27 25 24 23 23 23 24 25 26 27 28 29 30 32 32 32 32 32 32 32 32 32 32 32 32 32 32 32 33 33 34 34 35 35 36 37 37 38 38 39 40 41 41 41 41 41 41
40 40 39 39 40 40 40 40 40 39 38 36 34 33 32 32 32 32 32 32 32 32 31 30 29 29 29 30 30 30 29 31 32 32 32 31 29 28 27 25 23 23 23 23 24 26 26 27 28 28 28 28 30 31 32 32 32 32 32 32 32 32 32 32 32 32 33 34 34 35 35 36 36 37 37 37 38 38 39 39 40 41 41 41 41 41
39 39 39 40 41 41 41 41 41 41 41 40 39 37 36 35 33 32 32 32 32 32 31 29 29 28 28 28 27 28 28 28 29 31 32 31 29 27 25 24 23 23 24 24 26 27 28 28 28 27 27 27 28 30 31 31 31 31 31 31 31 32 32 32 32 33 33 34 35 35 36 36 37 37 37 38 38 39 39 39 40 40 41 41 40 40
38 38 38 38 39 40 41 41 41 41 41 41 40 39 37 36 34 33 32 32 32 32 31 30 29 28 26 25 25 25 26 27 29 30 30 28 27 25 23 23 24 24 24 25 26 28 28 28 28 27 27 27 28 28 29 30 30 30 31 31 31 31 32 32 32 33 34 34 35 36 36 37 37 38 38 38 39 39 39 39 40 40 40 39 38 37
37 38 38 38 38 39 40 40 41 41 41 41 39 37 36 35 34 33 32 32 32 31 30 29 28 27 25 25 25 26 26 28 29 30 28 26 24 23 23 24 24 24 24 25 26 26 27 28 28 27 27 28 27 27 27 28 29 29 30 30 31 31 31 32 32 33 34 35 35 36 37 37 37 38 38 39 39 39 39 39 40 40 40 38 37 36
35 36 37 37 37 38 38 38 38 39 40 39 38 37 35 34 33 32 32 31 29 28 27 27 27 26 26 26 26 26 25 26 28 28 26 25 24 23 23 24 24 24 25 26 26 26 26 27 27 27 26 26 26 25 25 26 27 28 28 29 30 30 31 32 32 33 34 34 35 36 36 37 37 37 38 38 39 39 39 39 40 40 39 37 36 35
32 33 34 34 35 35 35 35 34 35 36 37 37 37 36 34 32 31 31 30 28 27 27 27 27 27 28 28 26 24 23 25 28 28 26 25 24 24 24 24 25 25 27 28 28 26 25 24 24 25 25 25 24 25 25 26 26 26 27 28 28 29 31 31 32 32 33 34 34 35 36 36 37 37 38 38 39 39 39 39 40 40 38 36 35 33
32 33 33 33 33 32 32 33 32 31 32 32 34 35 35 34 32 31 30 28 28 27 27 27 27 28 28 28 27 26 26 27 29 30 27 26 26 26 26 26 27 28 29 31 29 27 25 23 23 24 24 24 24 25 25 26 26 26 27 27 28 28 30 30 31 31 32 33 34 34 35 36 37 37 38 39 39 39 39 39 40 40 38 36 34 33
34 33 33 33 33 32 32 31 31 30 31 31 31 32 32 33 33 32 30 28 28 27 26 27 28 28 29 29 28 28 28 28 29 31 29 27 26 27 27 28 28 29 31 31 30 28 26 25 24 24 24 24 24 25 25 27 27 27 27 27 27 27 28 29 29 30 31 32 33 34 35 36 37 37 38 38 39 39 39 39 39 39 37 36 34 32
35 34 34 34 33 32 32 31 31 31 31 30 31 31 30 31 31 32 31 29 28 28 27 28 29 29 30 29 29 28 26 26 29 32 31 28 27 28 28 29 29 30 30 30 28 28 26 25 25 24 24 24 25 25 25 26 26 27 26 26 26 27 28 28 28 29 30 31 32 32 34 35 37 37 37 37 38 38 38 37 37 37 36 35 33 32
35 35 34 34 33 33 33 32 32 31 30 30 30 31 31 30 29 29 30 29 28 28 28 29 30 30 30 29 28 27 26 25 28 31 32 29 29 30 30 30 30 30 30 29 28 27 26 25 25 25 25 25 24 24 25 25 25 26 26 26 26 27 27 28 28 28 29 30 31 32 33 35 37 37 37 37 36 36 36 36 35 35 34 34 33 32
33 33 33 33 33 33 33 32 32 31 30 30 30 29 30 29 28 28 28 28 28 29 30 30 30 30 29 29 28 27 27 26 27 29 32 31 31 32 31 31 31 30 30 28 28 27 26 26 26 26 26 24 23 23 24 25 25 26 26 26 27 27 28 28 28 29 29 30 32 33 34 36 37 37 36 35 34 34 34 33 33 33 33 33 32 32
32 32 32 31 31 32 32 31 30 30 30 29 29 28 28 27 27 27 25 25 25 26 28 29 30 30 30 29 28 28 28 27 27 28 31 32 32 32 32 31 31 31 30 29 28 28 27 27 26 26 25 24 23 23 23 25 25 25 25 26 27 27 28 28 29 29 29 31 32 34 36 36 36 35 35 34 33 32 32 32 32 32 32 32 32 32
31 31 31 29 29 29 29 29 29 29 29 29 28 28 27 25 24 24 23 22 21 21 23 24 25 26 29 30 29 28 27 26 27 28 30 30 32 32 32 31 30 30 30 30 29 28 28 27 26 25 24 23 23 24 25 25 25 25 25 26 27 28 28 28 29 29 30 32 33 35 36 35 34 33 33 32 31 30 29 29 30 31 32 32 32 32
29 29 29 28 28 28 28 28 28 28 28 28 28 27 26 25 25 24 23 22 21 20 21 21 21 22 22 23 26 29 30 30 30 30 29 28 29 31 32 31 29 28 29 30 30 29 28 28 27 26 25 24 24 24 25 25 25 25 26 27 27 28 28 29 30 30 31 32 34 35 35 34 33 32 31 30 28 28 27 28 28 29 30 30 31 31
28 28 28 29 28 28 27 28 28 28 28 28 29 28 27 27 26 25 23 23 24 23 20 20 21 23 24 27 29 31 32 32 32 31 28 27 26 27 28 29 29 28 28 29 29 29 29 28 28 27 27 26 25 25 25 25 25 26 27 27 26 27 28 29 30 31 32 33 34 34 33 32 32 30 29 28 27 27 27 26 27 28 30 29 28 28
28 27 27 29 29 29 29 29 28 28 27 26 25 25 26 26 26 26 26 26 26 26 25 26 26 27 28 28 27 26 26 26 27 28 26 25 24 25 26 27 27 27 27 28 28 29 30 29 28 28 27 27 26 26 26 25 26 28 28 27 27 27 28 29 30 31 33 34 34 33 32 32 30 29 28 28 27 27 27 27 27 28 29 28 26 25
29 28 28 28 28 28 28 27 28 28 27 25 25 26 26 26 26 26 26 26 25 25 25 25 24 24 25 24 22 20 19 19 22 23 24 24 23 23 23 24 26 27 27 28 29 29 30 30 29 28 28 27 27 26 25 26 27 28 28 28 28 28 28 28 30 31 33 33 32 32 32 30 28 27 27 27 27 26 27 27 28 28 29 28 26 26
29 28 28 27 28 28 29 29 28 28 27 26 26 25 25 26 28 28 28 24 23 23 24 23 22 21 20 20 20 20 19 17 18 20 23 21 21 21 22 23 24 25 28 28 29 29 28 29 29 28 28 27 27 26 26 26 27 28 28 28 28 28 26 27 28 31 33 33 32 30 29 28 27 26 26 27 26 26 26 27 28 29 29 27 26 26
28 28 27 27 28 28 29 28 26 26 26 26 26 26 25 25 27 28 26 23 22 22 22 21 19 18 17 16 16 17 19 18 17 18 21 24 25 24 23 23 23 24 26 29 30 29 28 28 28 27 27 27 27 26 26 26 27 27 27 28 27 27 26 27 28 30 32 32 31 30 28 27 26 24 24 24 24 25 25 25 25 25 27 27 26 26
28 28 28 28 28 28 27 25 24 24 23 25 25 24 24 24 25 26 23 22 21 20 19 19 19 18 16 16 16 17 19 18 19 19 21 24 27 27 25 24 23 24 25 28 28 28 28 27 27 26 27 26 26 26 26 26 26 27 27 27 26 26 26 28 29 30 30 30 30 30 28 27 25 24 23 24 24 24 25 25 25 25 25 25 25 25
28 28 28 28 27 26 26 24 23 23 22 23 23 22 22 23 23 24 24 22 21 20 19 19 18 18 17 17 17 16 17 19 20 21 22 22 22 23 24 25 25 26 25 27 27 27 27 27 27 26 26 25 25 26 26 26 26 26 25 26 25 25 26 27 28 28 29 29 29 29 29 26 25 24 26 26 25 25 24 24 24 24 24 25 25 25
27 27 26 26 25 24 23 23 22 21 21 21 21 21 21 22 23 23 23 23 23 23 24 21 18 15 15 15 15 14 15 17 19 20 21 22 22 22 22 23 25 26 26 27 27 27 28 27 27 26 25 24 23 24 25 25 25 25 24 24 24 24 24 25 26 28 28 28 29 29 29 27 26 26 27 27 26 25 24 24 24 24 24 25 25 25
28 27 26 25 24 23 22 22 21 20 20 20 20 20 22 23 25 25 22 21 21 22 22 18 14 12 12 12 13 14 16 16 18 19 21 22 23 23 23 23 23 24 26 27 28 28 28 27 27 26 25 24 23 23 23 23 23 23 23 23 23 23 23 24 26 27 27 28 28 29 29 29 28 28 28 27 26 25 24 24 24 24 24 25 25 26
27 27 26 24 23 23 22 21 20 19 20 19 19 20 22 24 27 26 23 20 18 17 17 16 14 12 12 11 13 15 18 18 18 18 19 21 22 23 23 23 23 23 23 25 25 25 25 26 27 27 27 25 24 24 24 23 22 22 22 23 23 23 23 24 25 26 27 28 28 28 29 29 29 29 28 27 26 25 24 24 24 24 24 25 25 26
27 26 25 24 23 23 22 21 20 20 19 19 19 20 22 23 24 23 22 20 18 15 14 15 14 13 12 12 13 15 17 16 16 17 19 20 21 22 23 22 23 23 24 24 24 23 22 23 24 27 29 29 28 26 23 20 19 20 21 23 23 24 24 25 25 26 27 28 28 28 28 29 29 29 28 27 26 25 24 24 24 24 24 25 26 27
26 25 24 23 23 23 21 20 20 21 20 20 21 21 23 23 23 23 22 21 19 18 15 15 15 15 15 14 15 17 18 16 16 17 19 20 20 21 21 21 22 23 23 24 23 23 21 20 21 22 25 29 29 27 23 20 19 19 20 23 24 25 25 25 25 26 27 28 28 28 28 29 29 29 28 28 27 26 25 24 24 24 25 25 26 27